Satellite: GOLIAT Catalog number: 38085 Epoch time: 14093.80530782 Element set: 933 Inclination: 069.4646 deg RA of node: 190.9807 deg Eccentricity: 0.0449054 Arg of perigee: 104.5351 deg Mean anomaly: 044.6966 deg Mean motion: 14.87538677 rev/day Decay rate: 1.13006e-03 rev/day^2 Epoch rev: 11215 Checksum: 321
Satellite: HORYU-2 Catalog number: 38340 Epoch time: 14093.13245415 Element set: 812 Inclination: 098.2538 deg RA of node: 049.1109 deg Eccentricity: 0.0013558 Arg of perigee: 056.5845 deg Mean anomaly: 303.6658 deg Mean motion: 14.72198636 rev/day Decay rate: 4.402e-05 rev/day^2 Epoch rev: 10075 Checksum: 297
Satellite: RS-40 Catalog number: 38735 Epoch time: 14092.67836179 Element set: 531 Inclination: 082.4795 deg RA of node: 334.6344 deg Eccentricity: 0.0017800 Arg of perigee: 059.9552 deg Mean anomaly: 300.3293 deg Mean motion: 12.42558077 rev/day Decay rate: 2.4e-07 rev/day^2 Epoch rev: 7620 Checksum: 308
Satellite: PROITERES Catalog number: 38756 Epoch time: 14093.76910833 Element set: 710 Inclination: 098.2286 deg RA of node: 180.8507 deg Eccentricity: 0.0011431 Arg of perigee: 257.9555 deg Mean anomaly: 102.0372 deg Mean motion: 14.74814337 rev/day Decay rate: 1.250e-05 rev/day^2 Epoch rev: 8421 Checksum: 291
Satellite: BEESAT-3 Catalog number: 39134 Epoch time: 14093.75408236 Element set: 545 Inclination: 064.8796 deg RA of node: 013.9750 deg Eccentricity: 0.0021700 Arg of perigee: 321.7671 deg Mean anomaly: 038.2408 deg Mean motion: 15.04239276 rev/day Decay rate: 1.3775e-04 rev/day^2 Epoch rev: 5246 Checksum: 303
Satellite: BEESAT-2 Catalog number: 39136 Epoch time: 14093.79047693 Element set: 534 Inclination: 064.8804 deg RA of node: 014.1300 deg Eccentricity: 0.0021690 Arg of perigee: 321.5338 deg Mean anomaly: 038.4732 deg Mean motion: 15.03763956 rev/day Decay rate: 1.2493e-04 rev/day^2 Epoch rev: 5246 Checksum: 296
Satellite: LO-75 Catalog number: 39382 Epoch time: 14093.69441411 Element set: 176 Inclination: 040.4989 deg RA of node: 180.7196 deg Eccentricity: 0.0011982 Arg of perigee: 062.5229 deg Mean anomaly: 297.6769 deg Mean motion: 15.34493775 rev/day Decay rate: 9.1380e-04 rev/day^2 Epoch rev: 2057 Checksum: 348
Satellite: ZACUBE-1 Catalog number: 39417 Epoch time: 14093.76846201 Element set: 262 Inclination: 097.7804 deg RA of node: 166.9385 deg Eccentricity: 0.0063742 Arg of perigee: 124.0621 deg Mean anomaly: 236.6654 deg Mean motion: 14.77802222 rev/day Decay rate: 4.049e-05 rev/day^2 Epoch rev: 1970 Checksum: 307
Satellite: TRITON-1 Catalog number: 39427 Epoch time: 14093.82311517 Element set: 114 Inclination: 097.7684 deg RA of node: 164.3159 deg Eccentricity: 0.0119925 Arg of perigee: 126.7344 deg Mean anomaly: 234.4876 deg Mean motion: 14.65140687 rev/day Decay rate: 3.936e-05 rev/day^2 Epoch rev: 1950 Checksum: 322
Satellite: DELFIN3XT Catalog number: 39428 Epoch time: 14092.81609898 Element set: 117 Inclination: 097.7678 deg RA of node: 162.8561 deg Eccentricity: 0.0130795 Arg of perigee: 130.9672 deg Mean anomaly: 230.2897 deg Mean motion: 14.62876568 rev/day Decay rate: 6.451e-05 rev/day^2 Epoch rev: 1931 Checksum: 351
Satellite: GOMX-1 Catalog number: 39430 Epoch time: 14093.71297565 Element set: 359 Inclination: 097.7643 deg RA of node: 162.4427 deg Eccentricity: 0.0157980 Arg of perigee: 131.3107 deg Mean anomaly: 230.1794 deg Mean motion: 14.56581363 rev/day Decay rate: 3.923e-05 rev/day^2 Epoch rev: 1937 Checksum: 318
Satellite: MO-76 Catalog number: 39436 Epoch time: 14093.45420829 Element set: 154 Inclination: 097.7843 deg RA of node: 168.3079 deg Eccentricity: 0.0029375 Arg of perigee: 135.1631 deg Mean anomaly: 225.1860 deg Mean motion: 14.87953432 rev/day Decay rate: 2.8483e-04 rev/day^2 Epoch rev: 1975 Checksum: 342
Satellite: LO-74 Catalog number: 39440 Epoch time: 14093.13479715 Element set: 111 Inclination: 097.7763 deg RA of node: 165.2708 deg Eccentricity: 0.0086067 Arg of perigee: 126.2787 deg Mean anomaly: 234.6393 deg Mean motion: 14.72766973 rev/day Decay rate: 4.287e-05 rev/day^2 Epoch rev: 1953 Checksum: 346
Satellite: PUCPSAT-1 Catalog number: 39442 Epoch time: 14093.15025958 Element set: 108 Inclination: 097.7858 deg RA of node: 167.9492 deg Eccentricity: 0.0035938 Arg of perigee: 130.3397 deg Mean anomaly: 230.0888 deg Mean motion: 14.85620431 rev/day Decay rate: 6.281e-05 rev/day^2 Epoch rev: 1848 Checksum: 330
Satellite: LITSAT-1 Catalog number: 39568 Epoch time: 14093.53427170 Element set: 67 Inclination: 051.6450 deg RA of node: 108.0524 deg Eccentricity: 0.0010518 Arg of perigee: 045.3246 deg Mean anomaly: 092.8955 deg Mean motion: 15.63010313 rev/day Decay rate: 2.20905e-03 rev/day^2 Epoch rev: 531 Checksum: 266
Satellite: LITUANSAT Catalog number: 39569 Epoch time: 14093.88398506 Element set: 107 Inclination: 051.6470 deg RA of node: 106.7910 deg Eccentricity: 0.0008597 Arg of perigee: 039.0821 deg Mean anomaly: 025.8253 deg Mean motion: 15.58668946 rev/day Decay rate: 1.21286e-03 rev/day^2 Epoch rev: 536 Checksum: 326
Satellite: SHINAISAT Catalog number: 39572 Epoch time: 14093.49540713 Element set: 54 Inclination: 065.0100 deg RA of node: 300.9753 deg Eccentricity: 0.0012785 Arg of perigee: 279.6907 deg Mean anomaly: 080.3316 deg Mean motion: 15.62245923 rev/day Decay rate: 4.7594e-04 rev/day^2 Epoch rev: 541 Checksum: 293
Satellite: OPUSAT Catalog number: 39575 Epoch time: 14093.86474564 Element set: 62 Inclination: 065.0180 deg RA of node: 299.0819 deg Eccentricity: 0.0006639 Arg of perigee: 297.0758 deg Mean anomaly: 062.9715 deg Mean motion: 15.67754924 rev/day Decay rate: 1.17823e-03 rev/day^2 Epoch rev: 548 Checksum: 343
Satellite: TEIKYOSAT Catalog number: 39576 Epoch time: 14093.39993410 Element set: 49 Inclination: 065.0165 deg RA of node: 301.0806 deg Eccentricity: 0.0008463 Arg of perigee: 296.3197 deg Mean anomaly: 063.7101 deg Mean motion: 15.64013316 rev/day Decay rate: 6.6485e-04 rev/day^2 Epoch rev: 540 Checksum: 290
Satellite: IFT-1 Catalog number: 39577 Epoch time: 14093.05057875 Element set: 54 Inclination: 065.0102 deg RA of node: 302.0186 deg Eccentricity: 0.0006884 Arg of perigee: 300.9990 deg Mean anomaly: 059.0529 deg Mean motion: 15.66133282 rev/day Decay rate: 9.4568e-04 rev/day^2 Epoch rev: 535 Checksum: 305
Satellite: INVADER Catalog number: 39578 Epoch time: 14093.75578041 Element set: 51 Inclination: 065.0075 deg RA of node: 299.0834 deg Eccentricity: 0.0007251 Arg of perigee: 266.1136 deg Mean anomaly: 093.9711 deg Mean motion: 15.72554874 rev/day Decay rate: 2.19932e-03 rev/day^2 Epoch rev: 237 Checksum: 312
Satellite: STARS-II Catalog number: 39579 Epoch time: 14093.87978665 Element set: 56 Inclination: 065.0040 deg RA of node: 298.6160 deg Eccentricity: 0.0011770 Arg of perigee: 251.6361 deg Mean anomaly: 108.3515 deg Mean motion: 15.76133505 rev/day Decay rate: 3.97557e-03 rev/day^2 Epoch rev: 549 Checksum: 324
/EX
participants (1)
-
Ray Hoad